Date String (YYYY-MM-DD hh:mm:ss) UTC,Instrument flags,absolute air pressure of the measurement (hPa),sample flow rate (lpm),inlet stack bypass flow (lpm),air temperature of the measurement (°C),ambient temperature measured by the external sensor (°C),aerosol sample conditioner tube jacket temperature (°C),OPC LED temperature (°C),internal box temperature (°C),relative humidity of the measurement (%),span deviation,mass concentration of particles derived from Lorenz-Mie calculation of OPC scattering (μg/m³),mass concentration of particles derived from Lorenz-Mie calculation of OPC scattering (μg/m³),mass concentration of particles derived from Lorenz-Mie calculation of OPC scattering (μg/m³)
DateTimeUTC,F1_M11,P_M11,Q1_M11,Q2_M11,T1_M11,T2_M11,T3_M11,T4_M11,T5_M11,U1_M11,ZSPAN_M11,X2_M11,X0_M11,X1_M11
2023-12-07 22:00:00,SystemResetWarning,0818.5,5.00,000.00,025.5,024.7,000.0,033.7,027.0,10.0,0000.0,0001.08,0002.40,0000.83
2023-12-07 22:01:00,SystemResetWarning,0818.5,5.00,000.00,025.6,024.8,000.0,033.7,027.0,10.0,0000.0,0001.11,0002.46,0000.84
2023-12-07 22:02:00,SystemResetWarning,0818.5,5.00,000.00,025.6,024.8,000.0,033.8,027.0,10.0,0000.0,0001.14,0002.53,0000.84
2023-12-07 22:03:00,SystemResetWarning,0818.5,5.00,000.00,025.6,024.9,000.0,033.8,027.1,10.0,0000.0,0001.17,0002.50,0000.85
2023-12-07 22:04:00,SystemResetWarning,0818.6,5.00,000.00,025.6,024.9,000.0,033.8,027.1,10.0,0000.0,0001.17,0002.39,0000.85
2023-12-07 22:05:00,SystemResetWarning,0818.5,5.00,000.00,025.6,024.9,000.0,033.8,027.1,10.0,0000.0,0001.17,0002.41,0000.85
2023-12-07 22:06:00,SystemResetWarning,0818.7,5.00,000.00,025.7,025.0,000.0,033.8,027.1,10.0,0000.0,0001.14,0002.35,0000.85
2023-12-07 22:07:00,SystemResetWarning,0818.6,5.00,000.00,025.7,025.0,000.0,033.8,027.1,9.8,0000.0,0001.13,0002.30,0000.84
2023-12-07 22:08:00,SystemResetWarning,0818.2,4.99,000.00,025.7,025.0,000.0,033.9,027.1,9.5,0000.0,0001.15,0002.37,0000.84
2023-12-07 22:09:00,SystemResetWarning,0818.4,5.00,000.00,025.7,025.0,000.0,033.9,027.2,9.4,0000.0,0001.13,0002.11,0000.84
2023-12-07 22:10:00,SystemResetWarning,0818.3,5.00,000.00,025.7,025.0,000.0,033.9,027.2,9.5,0000.0,0001.10,0001.69,0000.85
2023-12-07 22:11:00,SystemResetWarning,0818.5,5.00,000.00,025.7,025.0,000.0,033.9,027.1,9.4,0000.0,0001.10,0001.68,0000.86
2023-12-07 22:12:00,SystemResetWarning,0818.5,4.99,000.00,025.8,024.9,000.0,033.9,027.1,9.4,0000.0,0001.08,0001.62,0000.86
2023-12-07 22:13:00,SystemResetWarning,0818.4,4.99,000.00,025.8,024.9,000.0,033.9,027.1,9.5,0000.0,0001.08,0001.60,0000.86
2023-12-07 22:14:00,SystemResetWarning,0818.3,5.00,000.00,025.8,024.9,000.0,033.9,027.1,9.5,0000.0,0001.08,0001.59,0000.86
2023-12-07 22:15:00,SystemResetWarning,0818.2,5.00,000.00,025.8,024.9,000.0,033.9,027.1,9.4,0000.0,0001.09,0001.62,0000.85
2023-12-07 22:16:00,SystemResetWarning,0818.1,5.00,000.00,025.8,024.9,000.0,034.0,027.1,9.5,0000.0,0001.07,0001.72,0000.85
2023-12-07 22:17:00,SystemResetWarning,0818.3,5.00,000.00,025.8,024.9,000.0,034.0,027.1,9.5,0000.0,0001.08,0002.25,0000.85
2023-12-07 22:18:00,SystemResetWarning,0818.4,5.00,000.00,025.8,024.8,000.0,034.0,027.1,9.5,0000.0,0001.11,0002.27,0000.85
2023-12-07 22:19:00,SystemResetWarning,0818.3,5.01,000.00,025.8,024.8,000.0,034.0,027.1,9.4,0000.0,0001.09,0002.17,0000.87
2023-12-07 22:20:00,SystemResetWarning,0818.3,5.01,000.00,025.8,024.8,000.0,034.0,027.1,9.4,0000.0,0001.14,0002.30,0000.87
2023-12-07 22:21:00,SystemResetWarning,0818.4,5.01,000.00,025.8,024.8,000.0,034.0,027.1,9.3,0000.0,0001.17,0002.36,0000.88
2023-12-07 22:22:00,SystemResetWarning,0818.3,5.00,000.00,025.8,024.8,000.0,034.0,027.1,9.3,0000.0,0001.19,0002.38,0000.89
2023-12-07 22:23:00,SystemResetWarning,0818.3,4.99,000.00,025.8,024.8,000.0,034.0,027.2,9.3,0000.0,0001.21,0002.45,0000.89
2023-12-07 22:24:00,SystemResetWarning,0818.0,4.99,000.00,025.8,024.7,000.0,034.0,027.1,9.2,0000.0,0001.25,0002.60,0000.90
2023-12-07 22:25:00,SystemResetWarning,0818.2,4.99,000.00,025.8,024.8,000.0,034.0,027.1,9.3,0000.0,0001.26,0002.62,0000.92
2023-12-07 22:26:00,SystemResetWarning,0818.3,5.00,000.00,025.8,024.7,000.0,034.0,027.1,9.3,0000.0,0001.27,0002.64,0000.95
2023-12-07 22:27:00,SystemResetWarning,0818.3,5.00,000.00,025.8,024.7,000.0,034.0,027.1,9.3,0000.0,0001.35,0002.73,0000.97
2023-12-07 22:28:00,SystemResetWarning,0818.4,5.01,000.00,025.8,024.7,000.0,034.0,027.1,9.3,0000.0,0001.40,0002.34,0000.99
2023-12-07 22:29:00,SystemResetWarning,0818.3,5.00,000.00,025.8,024.7,000.0,034.0,027.1,9.3,0000.0,0001.42,0002.38,0001.00
2023-12-07 22:30:00,SystemResetWarning,0818.0,5.00,000.00,025.8,024.7,000.0,034.0,027.1,9.3,0000.0,0001.45,0002.47,0001.00
2023-12-07 22:31:00,SystemResetWarning,0817.9,5.01,000.00,025.7,024.7,000.0,034.0,027.0,9.3,0000.0,0001.46,0002.53,0001.01
2023-12-07 22:32:00,SystemResetWarning,0818.0,5.00,000.00,025.7,024.7,000.0,034.0,027.1,9.3,0000.0,0001.47,0002.61,0001.00
2023-12-07 22:33:00,SystemResetWarning,0818.1,5.00,000.00,025.8,024.7,000.0,034.0,027.1,9.3,0000.0,0001.46,0002.63,0000.99
2023-12-07 22:34:00,SystemResetWarning,0817.9,4.99,000.00,025.8,024.8,000.0,034.0,027.1,9.2,0000.0,0001.47,0002.64,0001.00
2023-12-07 22:35:00,SystemResetWarning,0817.6,4.99,000.00,025.8,024.8,000.0,034.1,027.1,9.3,0000.0,0001.43,0002.48,0001.00
2023-12-07 22:36:00,SystemResetWarning,0817.9,5.00,000.00,025.7,024.8,000.0,034.1,027.1,9.3,0000.0,0001.45,0002.51,0001.00
2023-12-07 22:37:00,SystemResetWarning,0818.0,5.00,000.00,025.7,024.7,000.0,034.0,027.1,9.3,0000.0,0001.45,0002.48,0001.00
2023-12-07 22:38:00,SystemResetWarning,0818.0,5.00,000.00,025.7,024.7,000.0,034.0,027.1,9.4,0000.0,0001.43,0002.31,0001.00
2023-12-07 22:39:00,SystemResetWarning,0818.0,5.00,000.00,025.7,024.7,000.0,034.0,027.1,9.4,0000.0,0001.40,0002.25,0001.01
2023-12-07 22:40:00,SystemResetWarning,0817.7,5.00,000.00,025.7,024.7,000.0,034.0,027.1,9.4,0000.0,0001.36,0002.16,0001.01
2023-12-07 22:41:00,SystemResetWarning,0818.1,5.00,000.00,025.7,024.7,000.0,034.0,027.1,9.3,0000.0,0001.35,0002.15,0001.00
2023-12-07 22:42:00,SystemResetWarning,0818.0,5.00,000.00,025.7,024.7,000.0,034.1,027.1,9.3,0000.0,0001.33,0002.09,0001.01
2023-12-07 22:43:00,SystemResetWarning,0818.0,5.00,000.00,025.8,024.7,000.0,034.1,027.1,9.4,0000.0,0001.33,0002.04,0001.01
2023-12-07 22:44:00,SystemResetWarning,0818.0,5.00,000.00,025.8,024.7,000.0,034.0,027.1,9.3,0000.0,0001.31,0001.96,0001.02
2023-12-07 22:45:00,SystemResetWarning,0817.9,5.00,000.00,025.8,024.7,000.0,034.0,027.2,9.3,0000.0,0001.33,0002.45,0001.02
2023-12-07 22:46:00,SystemResetWarning,0817.9,5.00,000.00,025.8,024.7,000.0,034.0,027.2,9.2,0000.0,0001.38,0003.48,0001.03
2023-12-07 22:47:00,SystemResetWarning,0817.6,5.00,000.00,025.8,024.8,000.0,034.1,027.1,9.1,0000.0,0001.43,0004.22,0001.03
2023-12-07 22:48:00,SystemResetWarning,0817.7,5.00,000.00,025.8,024.8,000.0,034.1,027.1,9.1,0000.0,0001.45,0004.31,0001.02
2023-12-07 22:49:00,SystemResetWarning,0817.7,5.00,000.00,025.8,024.7,000.0,034.1,027.1,9.1,0000.0,0001.45,0004.44,0001.01
2023-12-07 22:50:00,SystemResetWarning,0817.7,5.00,000.00,025.8,024.7,000.0,034.1,027.1,9.1,0000.0,0001.43,0004.44,0001.00
2023-12-07 22:51:00,SystemResetWarning,0817.7,5.00,000.00,025.8,024.7,000.0,034.1,027.1,9.2,0000.0,0001.44,0004.45,0001.00
2023-12-07 22:52:00,SystemResetWarning,0817.6,5.00,000.00,025.8,024.7,000.0,034.1,027.0,9.3,0000.0,0001.49,0004.60,0001.01
2023-12-07 22:53:00,SystemResetWarning,0817.5,5.01,000.00,025.8,024.7,000.0,034.1,027.0,9.3,0000.0,0001.47,0004.50,0001.00
2023-12-07 22:54:00,SystemResetWarning,0817.6,5.00,000.00,025.7,024.7,000.0,034.1,027.0,9.3,0000.0,0001.46,0004.50,0001.00
2023-12-07 22:55:00,SystemResetWarning,0817.5,5.00,000.00,025.7,024.7,000.0,034.1,027.0,9.3,0000.0,0001.46,0004.52,0000.99
2023-12-07 22:56:00,SystemResetWarning,0817.6,5.01,000.00,025.7,024.7,000.0,034.1,027.1,9.4,0000.0,0001.44,0004.00,0000.99
2023-12-07 22:57:00,SystemResetWarning,0817.5,4.99,000.00,025.7,024.6,000.0,034.0,027.1,9.5,0000.0,0001.45,0003.18,0000.99
2023-12-07 22:58:00,SystemResetWarning,0817.5,4.99,000.00,025.7,024.6,000.0,034.1,027.1,9.5,0000.0,0001.40,0002.49,0000.99
2023-12-07 22:59:00,SystemResetWarning,0817.5,5.02,000.00,025.7,024.6,000.0,034.0,027.0,9.5,0000.0,0001.37,0003.68,0000.99
